Time,TemperatureF,DewpointF,PressureIn,WindDirection,WindDirectionDegrees,WindSpeedMPH,WindSpeedGustMPH,Humidity,HourlyPrecipIn,Conditions,Clouds,dailyrainin,SolarRadiationWatts/m^2,SoftwareType,DateUTC
2013-03-07 00:32:00,61.0,21.0,30.09,ENE,64,8.0,11.0,21,-99.99,,,-99.99,0.000000,,2013-03-07 07:32:00,
2013-03-07 00:42:00,60.0,21.0,30.08,ENE,65,8.0,11.0,21,-99.99,,,-99.99,0.000000,,2013-03-07 07:42:00,
2013-03-07 00:53:00,60.0,21.0,30.08,ENE,65,8.0,11.0,21,-99.99,,,-99.99,0.000000,,2013-03-07 07:53:00,
2013-03-07 01:02:00,58.0,21.0,30.08,East,80,7.0,10.0,23,-99.99,,,-99.99,0.000000,,2013-03-07 08:02:00,
2013-03-07 01:12:00,58.0,21.0,30.08,East,84,8.0,12.0,23,-99.99,,,-99.99,0.000000,,2013-03-07 08:12:00,
2013-03-07 01:22:00,58.0,21.0,30.08,East,84,8.0,12.0,23,-99.99,,,-99.99,0.000000,,2013-03-07 08:22:00,
2013-03-07 01:33:00,57.0,21.0,30.08,East,93,8.0,11.0,24,-99.99,,,-99.99,0.000000,,2013-03-07 08:33:00,
2013-03-07 01:43:00,56.0,21.0,30.07,ENE,67,12.0,16.0,25,-99.99,,,-99.99,0.000000,,2013-03-07 08:43:00,
2013-03-07 01:54:00,56.0,21.0,30.07,ENE,67,12.0,16.0,25,-99.99,,,-99.99,0.000000,,2013-03-07 08:54:00,
2013-03-07 02:03:00,57.0,21.0,30.07,NE,40,12.0,16.0,24,-99.99,,,-99.99,0.000000,,2013-03-07 09:03:00,
2013-03-07 02:13:00,60.0,21.0,30.07,NE,53,5.0,11.0,21,-99.99,,,-99.99,0.000000,,2013-03-07 09:13:00,
2013-03-07 02:23:00,60.0,21.0,30.07,NE,53,5.0,11.0,21,-99.99,,,-99.99,0.000000,,2013-03-07 09:23:00,
2013-03-07 02:32:00,58.0,21.0,30.07,NE,47,8.0,13.0,23,-99.99,,,-99.99,0.000000,,2013-03-07 09:32:00,
2013-03-07 02:42:00,57.0,21.0,30.07,ENE,70,4.0,8.0,24,-99.99,,,-99.99,0.000000,,2013-03-07 09:42:00,
2013-03-07 02:53:00,57.0,21.0,30.07,ENE,70,4.0,8.0,24,-99.99,,,-99.99,0.000000,,2013-03-07 09:53:00,
2013-03-07 03:03:00,59.0,20.0,30.07,South,177,5.0,14.0,22,-99.99,,,-99.99,0.000000,,2013-03-07 10:03:00,
2013-03-07 03:13:00,60.0,20.0,30.06,SW,225,9.0,19.0,20,-99.99,,,-99.99,0.000000,,2013-03-07 10:13:00,
2013-03-07 03:23:00,60.0,20.0,30.06,SW,225,9.0,19.0,20,-99.99,,,-99.99,0.000000,,2013-03-07 10:23:00,
2013-03-07 03:33:00,60.0,20.0,30.05,SW,228,13.0,22.0,20,-99.99,,,-99.99,0.000000,,2013-03-07 10:33:00,
2013-03-07 03:53:00,60.0,20.0,30.05,SW,229,13.0,22.0,20,-99.99,,,-99.99,0.000000,,2013-03-07 10:53:00,
2013-03-07 04:03:00,59.0,20.0,30.05,WSW,241,15.0,23.0,21,-99.99,,,-99.99,0.000000,,2013-03-07 11:03:00,
2013-03-07 04:12:00,57.0,20.0,30.05,WSW,255,13.0,17.0,23,-99.99,,,-99.99,0.000000,,2013-03-07 11:12:00,
2013-03-07 04:23:00,57.0,20.0,30.05,WSW,255,13.0,17.0,23,-99.99,,,-99.99,0.000000,,2013-03-07 11:23:00,
2013-03-07 04:33:00,57.0,20.0,30.05,West,266,12.0,16.0,23,-99.99,,,-99.99,0.000000,,2013-03-07 11:33:00,
2013-03-07 04:43:00,56.0,20.0,30.05,WSW,257,14.0,19.0,24,-99.99,,,-99.99,0.000000,,2013-03-07 11:43:00,
2013-03-07 04:54:00,56.0,20.0,30.05,WSW,257,14.0,19.0,24,-99.99,,,-99.99,0.000000,,2013-03-07 11:54:00,
2013-03-07 05:03:00,56.0,20.0,30.05,WSW,257,14.0,18.0,24,-99.99,,,-99.99,0.000000,,2013-03-07 12:03:00,
2013-03-07 05:12:00,56.0,20.0,30.05,West,263,11.0,18.0,24,-99.99,,,-99.99,0.000000,,2013-03-07 12:12:00,
2013-03-07 05:23:00,56.0,20.0,30.05,West,263,11.0,18.0,24,-99.99,,,-99.99,0.000000,,2013-03-07 12:23:00,
2013-03-07 05:33:00,57.0,20.0,30.06,West,275,9.0,15.0,23,-99.99,,,-99.99,0.000000,,2013-03-07 12:33:00,
2013-03-07 05:42:00,57.0,20.0,30.06,West,275,9.0,15.0,23,-99.99,,,-99.99,0.000000,,2013-03-07 12:42:00,
2013-03-07 05:53:00,57.0,20.0,30.06,West,275,9.0,15.0,23,-99.99,,,-99.99,0.000000,,2013-03-07 12:53:00,
2013-03-07 06:02:00,56.0,20.0,30.07,WNW,289,11.0,16.0,23,-99.99,,,-99.99,0.000000,,2013-03-07 13:02:00,
2013-03-07 06:12:00,56.0,20.0,30.07,WNW,291,9.0,12.0,24,-99.99,,,-99.99,0.000000,,2013-03-07 13:12:00,
2013-03-07 06:22:00,56.0,20.0,30.07,WNW,291,9.0,12.0,24,-99.99,,,-99.99,0.000000,,2013-03-07 13:22:00,
2013-03-07 06:32:00,57.0,20.0,30.08,WNW,288,9.0,13.0,23,-99.99,,,-99.99,0.000000,,2013-03-07 13:32:00,
2013-03-07 06:42:00,57.0,20.0,30.08,West,277,8.0,11.0,23,-99.99,,,-99.99,0.000000,,2013-03-07 13:42:00,
2013-03-07 06:53:00,57.0,20.0,30.08,West,277,8.0,11.0,23,-99.99,,,-99.99,0.000000,,2013-03-07 13:53:00,
2013-03-07 07:02:00,57.0,20.0,30.08,West,273,7.0,11.0,23,-99.99,,,-99.99,2.090000,,2013-03-07 14:02:00,
2013-03-07 07:12:00,57.0,19.0,30.09,West,273,8.0,10.0,22,-99.99,,,-99.99,12.550000,,2013-03-07 14:12:00,
2013-03-07 07:23:00,57.0,19.0,30.09,West,273,8.0,10.0,22,-99.99,,,-99.99,12.550000,,2013-03-07 14:23:00,
2013-03-07 07:33:00,57.0,19.0,30.09,West,278,8.0,12.0,22,-99.99,,,-99.99,82.290001,,2013-03-07 14:33:00,
2013-03-07 07:42:00,58.0,19.0,30.09,West,272,10.0,13.0,22,-99.99,,,-99.99,124.820000,,2013-03-07 14:42:00,
2013-03-07 07:54:00,58.0,19.0,30.09,West,272,10.0,13.0,22,-99.99,,,-99.99,124.820000,,2013-03-07 14:54:00,
2013-03-07 08:03:00,58.0,19.0,30.10,West,274,9.0,14.0,21,-99.99,,,-99.99,151.320007,,2013-03-07 15:03:00,
2013-03-07 08:12:00,58.0,19.0,30.11,West,273,9.0,15.0,22,-99.99,,,-99.99,184.789993,,2013-03-07 15:12:00,
2013-03-07 08:32:00,59.0,19.0,30.11,West,277,8.0,12.0,21,-99.99,,,-99.99,276.140015,,2013-03-07 15:32:00,
2013-03-07 08:42:00,59.0,19.0,30.12,West,272,10.0,13.0,21,-99.99,,,-99.99,353.549988,,2013-03-07 15:42:00,
2013-03-07 08:53:00,59.0,19.0,30.12,West,272,10.0,13.0,21,-99.99,,,-99.99,353.549988,,2013-03-07 15:53:00,
2013-03-07 09:02:00,60.0,20.0,30.12,West,260,14.0,17.0,20,-99.99,,,-99.99,440.019989,,2013-03-07 16:02:00,
2013-03-07 09:12:00,60.0,20.0,30.12,West,263,13.0,17.0,20,-99.99,,,-99.99,511.149994,,2013-03-07 16:12:00,
2013-03-07 09:23:00,60.0,20.0,30.12,West,263,13.0,17.0,20,-99.99,,,-99.99,511.149994,,2013-03-07 16:23:00,
2013-03-07 09:32:00,60.0,20.0,30.12,West,259,14.0,17.0,20,-99.99,,,-99.99,578.789978,,2013-03-07 16:32:00,
2013-03-07 09:42:00,61.0,20.0,30.12,WSW,256,13.0,17.0,20,-99.99,,,-99.99,570.419983,,2013-03-07 16:42:00,
2013-03-07 09:53:00,61.0,20.0,30.12,WSW,256,13.0,17.0,20,-99.99,,,-99.99,570.419983,,2013-03-07 16:53:00,
2013-03-07 10:02:00,60.0,20.0,30.12,West,260,13.0,18.0,21,-99.99,,,-99.99,528.580017,,2013-03-07 17:02:00,
2013-03-07 10:12:00,61.0,21.0,30.12,WSW,253,13.0,19.0,20,-99.99,,,-99.99,653.400024,,2013-03-07 17:12:00,
2013-03-07 10:22:00,61.0,21.0,30.12,WSW,253,13.0,19.0,20,-99.99,,,-99.99,653.400024,,2013-03-07 17:22:00,
2013-03-07 10:32:00,62.0,21.0,30.12,WSW,250,14.0,21.0,20,-99.99,,,-99.99,705.700012,,2013-03-07 17:32:00,
2013-03-07 10:43:00,62.0,21.0,30.12,WSW,247,14.0,20.0,20,-99.99,,,-99.99,751.030029,,2013-03-07 17:43:00,
2013-03-07 10:54:00,62.0,21.0,30.12,WSW,247,14.0,20.0,20,-99.99,,,-99.99,751.030029,,2013-03-07 17:54:00,
2013-03-07 11:03:00,62.0,20.0,30.11,WSW,245,15.0,26.0,19,-99.99,,,-99.99,824.950012,,2013-03-07 18:03:00,
2013-03-07 11:12:00,63.0,20.0,30.11,WSW,243,14.0,23.0,19,-99.99,,,-99.99,883.520020,,2013-03-07 18:12:00,
2013-03-07 11:22:00,63.0,20.0,30.11,WSW,243,14.0,23.0,19,-99.99,,,-99.99,883.520020,,2013-03-07 18:22:00,
2013-03-07 11:32:00,63.0,19.0,30.11,WSW,249,17.0,27.0,18,-99.99,,,-99.99,882.820007,,2013-03-07 18:32:00,
2013-03-07 11:53:00,63.0,19.0,30.11,WSW,240,15.0,26.0,18,-99.99,,,-99.99,898.169983,,2013-03-07 18:53:00,
2013-03-07 12:03:00,64.0,19.0,30.10,WSW,244,19.0,30.0,18,-99.99,,,-99.99,869.570007,,2013-03-07 19:03:00,
2013-03-07 12:12:00,63.0,19.0,30.10,WSW,247,19.0,32.0,17,-99.99,,,-99.99,877.250000,,2013-03-07 19:12:00,
2013-03-07 12:23:00,63.0,19.0,30.10,WSW,247,19.0,32.0,17,-99.99,,,-99.99,877.250000,,2013-03-07 19:23:00,
2013-03-07 12:34:00,64.0,19.0,30.09,WSW,252,19.0,32.0,17,-99.99,,,-99.99,888.400024,,2013-03-07 19:34:00,
2013-03-07 12:43:00,64.0,18.0,30.09,WSW,246,17.0,29.0,16,-99.99,,,-99.99,893.979980,,2013-03-07 19:43:00,
2013-03-07 12:53:00,64.0,17.0,30.08,WSW,243,19.0,30.0,16,-99.99,,,-99.99,884.219971,,2013-03-07 19:53:00,
2013-03-07 13:02:00,64.0,17.0,30.08,WSW,243,19.0,30.0,16,-99.99,,,-99.99,884.219971,,2013-03-07 20:02:00,
2013-03-07 13:13:00,64.0,16.0,30.07,WSW,246,20.0,31.0,15,-99.99,,,-99.99,890.489990,,2013-03-07 20:13:00,
2013-03-07 13:22:00,64.0,16.0,30.07,WSW,246,20.0,31.0,15,-99.99,,,-99.99,890.489990,,2013-03-07 20:22:00,
2013-03-07 13:30:00,66.0,17.0,30.04,WSW,251,19.0,31.0,14,-99.99,,,-99.99,851.440002,,2013-03-07 20:30:00,
2013-03-07 13:33:00,65.0,17.0,30.06,WSW,244,15.0,28.0,15,-99.99,,,-99.99,878.640015,,2013-03-07 20:33:00,
2013-03-07 13:42:00,65.0,17.0,30.06,WSW,244,15.0,28.0,15,-99.99,,,-99.99,878.640015,,2013-03-07 20:42:00,
2013-03-07 13:54:00,65.0,17.0,30.06,WSW,244,15.0,28.0,15,-99.99,,,-99.99,878.640015,,2013-03-07 20:54:00,
2013-03-07 14:02:00,66.0,17.0,30.04,WSW,251,19.0,31.0,14,-99.99,,,-99.99,851.440002,,2013-03-07 21:02:00,
2013-03-07 14:12:00,66.0,17.0,30.04,WSW,251,19.0,31.0,14,-99.99,,,-99.99,851.440002,,2013-03-07 21:12:00,
2013-03-07 14:22:00,66.0,17.0,30.04,WSW,251,19.0,31.0,14,-99.99,,,-99.99,851.440002,,2013-03-07 21:22:00,
2013-03-07 15:54:00,65.0,13.0,30.01,WSW,247,23.0,36.0,12,-99.99,,,-99.99,337.510010,,2013-03-07 22:54:00,
2013-03-07 16:03:00,65.0,13.0,30.01,WSW,247,23.0,36.0,12,-99.99,,,-99.99,337.510010,,2013-03-07 23:03:00,
2013-03-07 16:13:00,64.0,13.0,30.01,WSW,252,27.0,37.0,13,-99.99,,,-99.99,275.450012,,2013-03-07 23:13:00,
2013-03-07 16:22:00,64.0,13.0,30.01,WSW,252,27.0,37.0,13,-99.99,,,-99.99,275.450012,,2013-03-07 23:22:00,
2013-03-07 16:33:00,64.0,13.0,30.00,WSW,246,27.0,43.0,13,-99.99,,,-99.99,358.429993,,2013-03-07 23:33:00,
2013-03-07 16:43:00,64.0,13.0,30.00,WSW,246,27.0,43.0,13,-99.99,,,-99.99,358.429993,,2013-03-07 23:43:00,
2013-03-07 16:54:00,64.0,13.0,30.00,WSW,246,27.0,43.0,13,-99.99,,,-99.99,358.429993,,2013-03-07 23:54:00,
2013-03-07 17:00:00,63.0,15.0,30.00,WSW,258,26.0,33.0,14,-99.99,,,-99.99,145.740005,,2013-03-08 00:00:00,
2013-03-07 17:13:00,63.0,14.0,30.01,WSW,252,23.0,34.0,14,-99.99,,,-99.99,135.979996,,2013-03-08 00:13:00,
2013-03-07 17:23:00,63.0,14.0,30.01,WSW,252,23.0,34.0,14,-99.99,,,-99.99,135.979996,,2013-03-08 00:23:00,
2013-03-07 17:34:00,63.0,15.0,30.00,WSW,258,26.0,33.0,14,-99.99,,,-99.99,145.740005,,2013-03-08 00:34:00,
2013-03-07 17:43:00,63.0,15.0,30.00,WSW,258,26.0,33.0,14,-99.99,,,-99.99,145.740005,,2013-03-08 00:43:00,
2013-03-07 17:54:00,63.0,15.0,30.00,WSW,258,26.0,33.0,14,-99.99,,,-99.99,145.740005,,2013-03-08 00:54:00,
2013-03-07 19:11:00,61.0,15.0,30.03,WSW,245,13.0,20.0,16,-99.99,,,-99.99,0.700000,,2013-03-08 02:11:00,
2013-03-07 19:22:00,61.0,15.0,30.03,WSW,245,13.0,20.0,16,-99.99,,,-99.99,0.700000,,2013-03-08 02:22:00,
2013-03-07 19:32:00,61.0,16.0,30.04,SW,231,10.0,18.0,17,-99.99,,,-99.99,0.000000,,2013-03-08 02:32:00,
2013-03-07 19:42:00,61.0,16.0,30.04,SW,232,10.0,20.0,16,-99.99,,,-99.99,0.000000,,2013-03-08 02:42:00,
2013-03-07 19:53:00,61.0,16.0,30.04,SW,232,10.0,20.0,16,-99.99,,,-99.99,0.000000,,2013-03-08 02:53:00,
2013-03-07 20:02:00,61.0,15.0,30.05,SW,220,12.0,23.0,15,-99.99,,,-99.99,0.000000,,2013-03-08 03:02:00,
2013-03-07 20:12:00,61.0,17.0,30.05,SW,228,11.0,22.0,17,-99.99,,,-99.99,0.000000,,2013-03-08 03:12:00,
2013-03-07 20:22:00,61.0,17.0,30.05,SW,228,11.0,22.0,17,-99.99,,,-99.99,0.000000,,2013-03-08 03:22:00,
2013-03-07 20:32:00,61.0,18.0,30.05,SW,225,13.0,22.0,18,-99.99,,,-99.99,0.000000,,2013-03-08 03:32:00,
2013-03-07 20:42:00,61.0,19.0,30.04,SW,232,15.0,24.0,19,-99.99,,,-99.99,0.000000,,2013-03-08 03:42:00,
2013-03-07 20:53:00,61.0,19.0,30.04,SW,232,15.0,24.0,19,-99.99,,,-99.99,0.000000,,2013-03-08 03:53:00,
2013-03-07 21:01:00,60.0,19.0,30.04,SSW,213,16.0,30.0,19,-99.99,,,-99.99,0.000000,,2013-03-08 04:01:00,
2013-03-07 21:11:00,60.0,19.0,30.05,SW,220,13.0,23.0,20,-99.99,,,-99.99,0.000000,,2013-03-08 04:11:00,
2013-03-07 21:22:00,60.0,19.0,30.05,SW,220,13.0,23.0,20,-99.99,,,-99.99,0.000000,,2013-03-08 04:22:00,
2013-03-07 21:32:00,59.0,19.0,30.05,SW,222,17.0,27.0,21,-99.99,,,-99.99,0.000000,,2013-03-08 04:32:00,
2013-03-07 21:42:00,59.0,19.0,30.06,WSW,238,14.0,22.0,21,-99.99,,,-99.99,0.000000,,2013-03-08 04:42:00,
2013-03-07 21:52:00,59.0,19.0,30.06,WSW,238,14.0,22.0,21,-99.99,,,-99.99,0.000000,,2013-03-08 04:52:00,
2013-03-07 22:02:00,58.0,19.0,30.05,WSW,237,17.0,24.0,21,-99.99,,,-99.99,0.000000,,2013-03-08 05:02:00,
2013-03-07 22:12:00,58.0,19.0,30.05,SW,234,18.0,26.0,21,-99.99,,,-99.99,0.000000,,2013-03-08 05:12:00,
2013-03-07 22:22:00,58.0,19.0,30.05,SW,234,18.0,26.0,21,-99.99,,,-99.99,0.000000,,2013-03-08 05:22:00,
2013-03-07 22:32:00,58.0,19.0,30.05,SW,234,18.0,26.0,21,-99.99,,,-99.99,0.000000,,2013-03-08 05:32:00,
2013-03-07 22:42:00,58.0,18.0,30.07,SW,236,17.0,22.0,21,-99.99,,,-99.99,0.000000,,2013-03-08 05:42:00,
2013-03-07 22:52:00,58.0,18.0,30.07,SW,236,17.0,22.0,21,-99.99,,,-99.99,0.000000,,2013-03-08 05:52:00,
2013-03-07 23:01:00,58.0,18.0,30.07,WSW,251,17.0,23.0,21,-99.99,,,-99.99,0.000000,,2013-03-08 06:01:00,
2013-03-07 23:11:00,57.0,19.0,30.08,WSW,254,15.0,21.0,22,-99.99,,,-99.99,0.000000,,2013-03-08 06:11:00,
2013-03-07 23:22:00,57.0,19.0,30.08,WSW,254,15.0,21.0,22,-99.99,,,-99.99,0.000000,,2013-03-08 06:22:00,
2013-03-07 23:32:00,57.0,18.0,30.08,WSW,252,18.0,23.0,21,-99.99,,,-99.99,0.000000,,2013-03-08 06:32:00,
2013-03-07 23:42:00,57.0,18.0,30.07,WSW,252,21.0,28.0,21,-99.99,,,-99.99,0.000000,,2013-03-08 06:42:00,
2013-03-07 23:52:00,57.0,18.0,30.07,WSW,252,21.0,28.0,21,-99.99,,,-99.99,0.000000,,2013-03-08 06:52:00,